• Processing (Info)

  • MPEC 2023-P48 : 2023 PM

    The following Minor Planet Electronic Circular may be linked-to from your own Web pages, but must not otherwise be redistributed electronically.

    A form allowing access to any MPEC is at the bottom of this page.


    Read MPEC 2023-P47 Read MPEC 2023-P49


    M.P.E.C. 2023-P48                               Issued 2023 August 10, 10:49 UT
    
         The Minor Planet Electronic Circulars contain information on unusual
             minor planets, routine data on comets and natural satellites,
             and occasional editorial announcements.  They are published
        on behalf of Division F of the International Astronomical Union by the
              Minor Planet Center, Smithsonian Astrophysical Observatory,
                              Cambridge, MA 02138, U.S.A.
    			  
                 Prepared using the Tamkin Foundation Computer Network
    
                                  MPC@CFA.HARVARD.EDU
                URL https://www.minorplanetcenter.net/    ISSN 1523-6714
    
                                     2023 PM                                 
    
    
    Observations:
         K23P00M*KC2023 08 08.05690 16 23 58.67 -19 02 42.0          18.2 GVEP048W94
         K23P00M KC2023 08 08.06311 16 23 59.80 -19 02 16.4          18.4 GVEP048W94
         K23P00M KC2023 08 08.06933 16 24 00.90 -19 01 50.6                VEP048W94
         K23P00M KB2023 08 08.83200 16 27 10.38 -18 10 59.7          19.0 RZEP048106
         K23P00M KB2023 08 08.83537 16 27 11.07 -18 10 44.1          19.7 RZEP048106
         K23P00M KB2023 08 08.83874 16 27 11.86 -18 10 28.6          18.8 RZEP048106
         K23P00M KB2023 08 08.84211 16 27 12.58 -18 10 15.0          19.1 RZEP048106
         K23P00M KC2023 08 08.86481316 27 19.11 -18 08 33.3                XEP048958
         K23P00M KB2023 08 08.86720516 27 19.62 -18 08 23.8          19.5 GXEP048I93
         K23P00M KB2023 08 08.87065616 27 20.33 -18 08 07.6          20.0 GXEP048I93
         K23P00M KC2023 08 08.87205916 27 20.63 -18 07 59.6          20.1 GXEP048958
         K23P00M KB2023 08 08.87379616 27 21.03 -18 07 53.6          19.6 GXEP048I93
         K23P00M KB2023 08 08.87887 16 27 22.015-18 07 25.32         19.7 VZEP048J57
         K23P00M KC2023 08 08.87923316 27 22.16 -18 07 28.3          19.6 GXEP048958
         K23P00M KB2023 08 08.88975 16 27 24.293-18 06 36.50         20.2 VZEP048J57
         K23P00M KB2023 08 08.91079916 27 34.818-18 02 55.27         19.4 GXEP048Y05
         K23P00M KB2023 08 08.91852916 27 36.345-18 02 21.15         19.2 GXEP048Y05
         K23P00M KB2023 08 08.92625616 27 37.902-18 01 46.88         19.7 GXEP048Y05
         K23P00M KC2023 08 09.10619116 28 22.61 -17 50 28.3          20.3 VuEP048H21
         K23P00M KC2023 08 09.10909516 28 23.25 -17 50 14.8          20.6 VuEP048H21
         K23P00M KC2023 08 09.11199816 28 23.88 -17 50 01.5          20.6 VuEP048H21
         K23P00M KC2023 08 10.30801716 34 14.39 -16 08 34.5          19.7 GVEP048474
         K23P00M KC2023 08 10.31052116 34 15.03 -16 08 21.2          19.9 GVEP048474
         K23P00M KC2023 08 10.31302716 34 15.69 -16 08 07.7          19.6 GVEP048474
         K23P00M KC2023 08 10.31553316 34 16.34 -16 07 54.3          19.7 GVEP048474
    
    Observer details:
    106 Crni Vrh.  Observer H. Mikuz.  0.60-m f/3.3 reflector + CMO.
    474 Mount John Observatory, Lake Tekapo.  Observers A. C. Gilmore, P. M.
        Kilmartin.  Measurer P. M. Kilmartin.  0.6-m f/6.2 reflector + CCD.
    958 Observatoire de Dax.  Observers P. Dupouy, J. B. de Vanssay.  Measurer P.
        Dupouy.  0.43-m f/2.7 Reflector + CCD.
    H21 Astronomical Research Observatory, Westfield.  Observer R. Holmes.
        Measurers T. Linder, R. Holmes, L. Horn.  0.81-m f/4.0 astrograph + CCD.
    I93 St Pardon de Conques.  Observer F. Losse.  0.40-m f/3.7 reflector + CMO.
    J57 Centro Astronomico Alto Turia, Valencia.  Observer A. Fornas.  Measurers
        A. Fornas, G. Fornas, E. Arce, V. Mas.  0.40-m f/6.8 Reflector 0.4m + CMO.
    W94 MAP, San Pedro de Atacama.  Observers A. Maury, G. Attard.  Measurers D.
        Parrott, F. Signoret, J.-M. Mari.  0.28-m f/2.2 Schmidt astrograph + CCD.
    Y05 SONEAR Wykrota-CEAMIG, Serra da Piedade.  Observer C. Jacques.  0.45-m
        f/2.9 reflector + CMO.
    
    Orbital elements:
    2023 PM                                                  Earth MOID = 0.0190 AU
    Epoch 2023 Sept. 13.0 TT = JDT 2460200.5                Veres                   
    M   7.18416              (2000.0)            P               Q                  
    n   0.32521997     Peri.   18.89950     +0.84631428     +0.53086760             
    a   2.0941988      Node   308.95686     -0.49572150     +0.75470471             
    e   0.5102955      Incl.    3.24011     -0.19496752     +0.38548721             
    P   3.03           H   23.66          G   0.15           U   9                  
    Residuals in seconds of arc
    230808 W94  1.1+  0.4+    230808 I93  0.3-  0.5+    230809 H21  0.2+  0.1-
    230808 W94  1.2+  0.5+    230808 958  1.2-  1.2+    230809 H21  0.2+  0.1-
    230808 W94  0.7+  0.7+    230808 I93  0.0   0.3+    230809 H21  0.1+  0.2-
    230808 106  0.3+  0.1-    230808 J57  0.3+  0.2-    230810 474  0.1+  0.2-
    230808 106  0.3-  0.4+    230808 958  1.5-  0.2+    230810 474  0.1-  0.1-
    230808 106  0.5+  0.8+    230808 J57  0.6-  0.5-    230810 474  0.0   0.1+
    230808 106  0.4+  0.7-    230808 Y05  0.1-  0.0     230810 474  0.1-  0.2+
    230808 958  0.6-  0.0     230808 Y05  0.2-  0.0
    230808 I93  0.2+  0.3-    230808 Y05  0.1+  0.1-
    
    Ephemeris:
    2023 PM                  a,e,i = 2.09, 0.51, 3                   q = 1.0255
    Date    TT    R. A. (2000) Decl.     Delta      r    Elong.  Phase     V
    2023 07 11    15 59 38.3 -30 59 06   0.1659  1.1401   135.0    39.1    21.6
    ...
    2023 07 26    15 58 16.4 -27 12 57   0.1095  1.0752   120.3    54.6    21.0
    ...
    2023 08 03    16 09 08.0 -23 21 21   0.07981 1.0505   114.6    61.5    20.5
    ...
    2023 08 09    16 27 57.0 -17 56 25   0.05791 1.0372   112.2    64.8    19.8
    2023 08 10    16 32 38.6 -16 36 40   0.05436 1.0355   112.1    65.1    19.7
    2023 08 11    16 37 59.0 -15 05 36   0.05086 1.0339   112.1    65.3    19.6
    ...
    2023 08 17    17 32 40.1 +00 53 10   0.03204 1.0272   116.2    62.2    18.5
    ...
    2023 08 25    21 15 53.2 +43 40 32   0.02693 1.0262   123.8    55.0    17.9
    ...
    2023 09 09    01 35 11.5 +42 33 50   0.07533 1.0486   121.3    55.2    20.2
    
    M. P. C. Staff               (C) Copyright 2023 MPC           M.P.E.C. 2023-P48
    


    Read MPEC 2023-P47 Read MPEC 2023-P49


    MPEC number:

    Enter an MPEC number in one of the following forms:

    • 1997-B01 (the full form)
    • J97B01 (the packed version of the full form)
    • B01 (the abbreviated form)